Regional Weather Roundup
Issued by NWS

Home | Current Version | Previous Version | Graphics & Text | Print | Product List | Glossary On
Versions: 1 2 3 4 5 6 7 8 9 10 11 12 13 14 15 16 17 18 19 20 21 22 23 24 25 26 27 28 29 30 31 32 33 34 35 36 37 38 39 40 41 42 43 44 45 46 47 48 49 50
000
ASUS43 KBIS 300910
RWRND

NORTH DAKOTA REGIONAL WEATHER ROUNDUP
NATIONAL WEATHER SERVICE BISMARCK ND
400 AM CDT THU OCT 30 2014

NOTE: "FAIR" INDICATES FEW OR NO CLOUDS BELOW 12,000 FEET WITH NO
SIGNIFICANT WEATHER AND/OR OBSTRUCTIONS TO VISIBILITY.


NDZ001>003-009>011-017-301000-
NORTHWEST NORTH DAKOTA

CITY           SKY/WX    TMP DP  RH WIND       PRES   REMARKS
WILLISTON      CLOUDY    37  33  85 N12       30.18R
MINOT          CLEAR     29  26  89 NW9       30.12R
MINOT AFB      CLEAR     30  29  99 N12       30.12R
$$

NDZ018>021-031>035-040>046-301000-
SOUTHWEST NORTH DAKOTA

CITY           SKY/WX    TMP DP  RH WIND       PRES   REMARKS
BISMARCK       CLEAR     37  35  92 NW8       30.06R
DICKINSON      CLEAR     33  31  92 W8        30.11R
GARRISON         N/A     32  30  92 NW12      30.09R
HETTINGER ARPT CLEAR     34  31  88 NW10      30.13R
$$

NDZ004>008-012>016-024-026-027-054-301000-
NORTHEAST NORTH DAKOTA

CITY           SKY/WX    TMP DP  RH WIND       PRES   REMARKS
GRAND FORKS    CLOUDY    37  34  89 NE9       30.03R
GRND FRKS AFB  CLOUDY    37  35  95 NE9       30.04R
DEVILS LAKE    CLEAR     30  21  69 NE7       30.03R
$$

NDZ022-023-025-028>030-036>039-047>053-301000-
SOUTHEAST NORTH DAKOTA

CITY           SKY/WX    TMP DP  RH WIND       PRES   REMARKS
FARGO          LGT RAIN  40  37  89 SE5       30.00R FOG
JAMESTOWN      CLEAR     36  34  92 NW8       29.98R
$$




USA.gov is the U.S. government's official web portal to all federal, state and local government web resources and services.